Wind_Speed
35 33 31 29 27 26 26 26 26 24 22 19 17 17 15 13 12 11 10 10 10 11 10 11 11 11 11 12 13 14 15 17 18 18 19 20 20 20 18 15 15 15 14 13
36 35 34 33 30 28 27 26 27 27 25 22 19 18 16 15 15 14 13 12 12 12 12 13 13 12 12 13 14 15 17 18 18 19 20 21 21 20 19 17 16 15 15 15
36 36 36 37 33 30 29 29 28 28 26 24 23 22 19 19 17 16 15 14 14 14 14 14 14 14 15 15 15 16 17 18 19 19 20 21 21 20 19 18 17 16 16 16
37 36 39 37 34 32 31 29 29 29 28 27 25 24 23 22 21 19 18 16 16 16 16 17 18 17 17 17 17 17 18 19 20 20 20 21 21 21 20 20 19 19 18 18
38 38 39 38 36 34 33 31 30 30 29 28 27 26 25 24 23 22 20 19 19 19 19 20 19 19 19 20 19 18 19 20 20 21 21 21 22 21 21 21 21 20 20 20
40 39 40 38 37 35 35 35 32 31 30 30 29 28 26 25 25 24 23 23 22 22 21 21 22 21 21 23 21 20 21 21 22 22 22 23 23 23 23 22 22 22 21 21
41 40 40 38 37 37 38 37 33 32 31 31 31 29 29 28 27 27 26 26 25 24 24 23 23 23 23 23 22 22 22 22 23 23 24 24 25 26 25 24 23 23 22 22
41 40 39 37 37 38 37 35 34 33 33 32 31 30 31 30 29 28 27 27 27 26 25 24 24 24 24 23 24 24 24 24 25 25 25 26 26 27 27 27 25 25 24 23
40 40 37 36 36 36 36 35 35 34 33 32 32 31 30 30 29 29 28 27 27 26 26 25 25 25 25 25 25 25 26 26 27 27 27 27 27 27 28 27 27 27 26 24
41 41 39 37 36 37 36 36 35 35 34 34 33 33 31 29 28 28 29 29 29 28 28 28 27 27 26 27 27 27 28 28 28 28 28 28 28 28 28 28 27 26 27 27
41 41 40 39 37 35 34 35 36 37 36 35 35 33 31 29 27 28 29 29 30 29 29 29 29 29 29 29 29 29 29 30 30 30 30 29 30 30 29 29 29 28 28 28
41 41 41 39 38 36 35 35 35 36 36 36 36 35 33 31 31 31 30 31 31 31 32 32 31 31 31 31 31 31 31 32 32 32 31 31 31 31 30 29 29 29 28 28
41 41 42 41 40 39 38 38 37 37 37 36 36 35 35 34 34 33 32 32 33 34 34 34 33 32 32 32 33 33 33 33 33 33 33 33 33 32 31 30 30 30 30 30
41 42 43 43 41 40 40 39 39 38 37 37 36 35 35 35 34 34 33 33 34 34 34 34 34 33 33 33 34 34 34 34 34 34 33 34 34 33 32 32 31 31 31 31
42 41 41 40 40 39 38 38 38 38 36 36 36 36 36 35 34 33 33 33 34 35 35 35 35 34 34 34 34 34 34 34 34 34 34 33 33 32 33 33 32 32 31 32
39 40 40 40 40 39 38 37 37 37 36 35 35 36 35 35 35 35 34 34 35 35 35 35 35 35 34 34 34 34 34 34 34 34 34 34 34 34 34 33 33 32 32 32
38 39 40 39 38 38 38 36 36 36 36 36 35 35 35 35 35 35 35 35 35 34 35 35 35 35 34 34 35 35 35 35 35 35 34 34 34 34 34 33 33 33 32 32
35 35 36 36 35 35 34 33 33 34 34 35 36 35 35 36 35 35 35 36 35 34 34 34 34 34 35 35 35 35 36 36 35 35 35 35 35 35 34 34 33 33 33 32
31 32 33 33 33 33 33 34 34 34 35 36 37 36 36 36 35 35 35 35 35 34 34 34 34 34 35 35 35 35 35 35 35 35 35 35 35 34 34 33 33 33 33 32
32 33 34 33 33 33 34 34 34 34 35 35 35 35 34 34 34 35 35 35 34 34 34 34 34 35 35 35 35 35 34 34 34 34 33 34 34 34 33 33 32 32 32 33
31 32 33 32 32 33 34 34 35 34 34 34 33 33 33 33 34 34 34 34 33 33 33 33 34 34 34 34 34 33 33 34 33 33 33 33 33 33 33 32 32 32 32 31
31 31 32 33 33 33 33 34 35 35 34 33 34 33 33 33 33 32 32 32 32 32 32 33 33 33 33 33 33 33 33 33 33 33 33 33 33 32 32 32 32 31 31 30
29 29 30 31 31 31 32 32 33 33 33 33 33 33 32 32 32 32 31 31 31 32 32 32 32 32 32 32 32 32 32 32 32 32 32 32 32 32 32 32 31 30 30 30
26 27 28 29 30 30 30 29 29 29 30 30 30 30 31 31 31 31 31 31 31 30 31 31 31 31 31 31 31 31 31 32 32 32 31 31 31 31 31 30 30 30 30 30
25 26 27 27 28 28 28 29 28 28 28 28 28 28 29 30 30 29 29 29 29 29 30 30 30 30 30 30 30 31 31 31 31 30 29 29 29 29 29 29 29 29 29 28
23 25 25 26 26 26 26 26 26 27 27 27 27 27 28 28 28 27 27 27 28 29 29 28 28 28 28 29 29 29 29 29 29 28 29 29 29 29 28 28 28 27 27 26
20 21 22 23 23 23 23 23 24 24 25 26 26 26 25 25 26 26 26 26 26 27 26 26 26 26 27 28 28 28 27 27 27 27 27 27 27 26 27 27 27 27 27 27
Wind_Direction
219 217 217 219 217 219 224 231 234 236 243 251 263 271 278 286 288 292 296 303 310 316 318 320 322 328 335 338 339 341 343 343 343 344 344 345 344 343 340 333 330 329 328 326
222 220 219 219 219 219 223 230 233 236 242 248 254 262 268 277 281 281 285 292 300 306 307 312 312 316 323 328 330 332 335 338 339 340 340 342 342 342 341 338 331 328 326 326
224 222 221 220 220 222 224 227 234 237 240 247 251 257 263 268 272 274 279 284 292 297 297 304 306 306 310 315 320 324 327 331 333 333 335 337 339 339 338 338 337 330 326 324
226 222 222 221 219 223 227 230 232 236 240 246 251 255 259 263 269 272 275 281 288 293 295 300 301 301 301 305 310 314 318 321 324 327 330 332 334 334 333 332 330 329 326 322
228 224 223 220 218 221 226 229 232 234 239 244 249 252 255 260 265 270 273 279 284 288 291 294 294 297 300 301 302 304 308 311 315 320 322 324 328 329 328 328 325 323 323 322
230 228 225 222 220 223 227 229 231 234 237 242 247 251 256 261 266 270 272 277 281 284 285 287 290 292 295 298 296 297 301 305 309 312 316 318 321 322 323 323 322 319 318 318
230 231 229 225 223 225 229 232 233 237 239 241 245 250 255 260 264 268 271 275 276 277 280 284 288 292 293 297 299 297 298 300 305 308 311 313 315 316 318 319 319 318 315 314
230 232 231 228 227 229 232 234 235 238 240 242 245 249 252 257 262 266 269 273 274 274 276 282 287 290 290 292 295 297 299 301 302 306 308 311 312 313 315 315 314 314 312 310
230 231 232 231 231 230 231 234 235 237 238 241 244 249 253 256 260 263 266 270 273 274 276 279 284 287 288 290 293 296 296 298 299 303 306 306 309 311 311 312 311 310 308 308
229 231 232 232 232 231 231 234 235 238 240 243 245 248 253 257 259 262 265 268 271 274 275 278 282 284 285 287 290 293 294 296 297 299 301 303 305 307 309 310 309 306 305 306
230 231 231 232 232 231 232 235 236 238 242 245 249 251 252 254 258 260 263 266 269 273 277 280 281 282 283 286 290 291 293 294 295 295 297 299 301 304 306 306 305 304 304 303
230 231 232 232 232 231 231 234 236 239 243 247 250 255 256 256 258 259 261 266 269 272 275 278 280 281 283 285 288 289 290 291 291 293 295 296 298 300 302 302 303 302 302 302
228 230 230 232 233 234 235 236 237 240 242 245 250 255 259 262 261 262 263 266 269 271 274 277 280 281 282 284 286 288 290 290 290 291 292 294 294 296 297 298 299 298 298 300
228 229 230 233 233 236 238 238 240 242 241 242 247 252 256 260 262 264 265 266 268 271 274 276 279 280 281 283 285 287 289 289 288 288 289 292 293 294 295 295 295 296 297 298
229 231 232 234 235 237 237 237 239 242 243 245 248 252 255 259 260 262 263 265 268 271 274 276 278 279 281 282 283 285 287 289 288 287 288 290 292 293 294 294 294 295 296 297
231 232 232 234 238 239 239 240 241 243 247 249 250 252 254 257 260 262 264 265 268 272 274 276 277 278 280 281 283 284 286 287 287 288 289 290 292 293 294 293 294 294 295 296
232 233 233 235 238 238 240 241 243 246 249 252 253 253 255 257 260 263 264 266 268 271 273 274 275 277 279 280 282 284 286 287 288 288 289 291 292 294 294 295 295 294 293 295
231 232 232 234 233 236 238 240 244 248 251 255 257 258 259 260 261 264 265 267 269 271 273 274 275 276 278 280 282 284 285 287 287 287 288 290 292 293 293 293 294 294 293 294
231 232 233 235 236 238 243 247 249 252 254 255 258 261 261 262 263 265 266 267 268 270 272 273 274 277 279 281 283 284 285 285 286 286 287 288 289 290 291 292 292 292 292 292
236 237 237 241 243 246 249 250 252 253 255 257 259 261 263 265 265 265 265 266 268 270 272 273 276 278 280 281 283 284 285 285 286 287 288 288 288 288 289 291 291 291 291 292
239 242 243 243 244 247 249 250 252 255 256 258 261 263 264 265 264 264 265 267 268 270 272 275 277 279 281 282 283 284 285 287 287 288 288 288 287 287 289 290 291 291 291 292
240 242 244 244 246 248 250 252 254 256 257 259 261 262 263 263 263 264 265 267 269 271 272 275 277 279 280 282 283 285 287 288 289 288 287 286 286 287 288 290 290 291 291 291
239 240 242 245 248 249 250 252 254 255 257 258 259 261 263 262 262 262 264 266 268 270 271 273 276 278 280 282 284 286 287 288 289 289 289 287 286 287 288 288 289 289 289 290
241 243 245 246 248 250 251 252 254 255 256 258 260 261 262 261 261 262 263 265 268 269 272 273 275 278 281 282 284 285 286 288 289 289 289 289 288 287 287 287 287 288 288 290
242 244 245 248 250 252 253 253 254 256 258 259 261 262 263 261 261 263 265 267 269 271 271 273 275 279 281 282 284 286 287 288 288 288 288 288 289 289 289 289 288 289 290 291
241 242 244 247 249 251 253 252 254 256 256 258 261 261 262 261 261 261 264 267 268 270 272 273 276 279 282 284 286 287 288 288 287 287 287 288 289 288 289 289 290 290 291 291
245 244 244 246 248 250 253 254 255 256 256 257 259 260 261 261 260 261 264 266 269 272 274 276 278 280 283 285 287 287 287 287 287 287 287 288 289 289 289 289 289 290 291 292
Height
5897 5901 5904 5907 5911 5914 5916 5918 5920 5923 5924 5926 5926 5927 5928 5929 5929 5929 5929 5929 5928 5928 5927 5926 5925 5924 5922 5920 5918 5916 5914 5911 5908 5905 5902 5899 5895 5891 5888 5885 5882 5880 5878 5876
5891 5895 5898 5901 5905 5908 5911 5913 5915 5917 5920 5922 5922 5923 5924 5925 5926 5926 5927 5927 5926 5925 5924 5923 5922 5921 5919 5918 5916 5914 5912 5909 5906 5903 5900 5896 5893 5889 5885 5882 5880 5878 5875 5873
5884 5888 5892 5895 5900 5903 5905 5907 5910 5912 5915 5917 5918 5918 5920 5921 5922 5923 5923 5923 5922 5922 5921 5920 5919 5918 5917 5915 5913 5911 5909 5906 5903 5900 5897 5894 5890 5887 5884 5880 5878 5875 5873 5870
5876 5882 5884 5891 5895 5897 5899 5902 5904 5907 5909 5911 5913 5914 5916 5917 5918 5918 5919 5918 5918 5918 5916 5916 5915 5914 5913 5911 5909 5908 5906 5903 5900 5897 5894 5891 5887 5884 5881 5878 5875 5872 5869 5867
5869 5873 5877 5883 5888 5891 5893 5895 5898 5901 5903 5905 5907 5909 5910 5912 5913 5914 5914 5914 5914 5914 5913 5912 5911 5909 5908 5906 5905 5903 5901 5899 5896 5893 5891 5888 5884 5881 5878 5875 5872 5869 5866 5863
5861 5865 5869 5877 5882 5884 5887 5889 5892 5894 5897 5899 5901 5903 5905 5907 5907 5908 5909 5909 5909 5909 5909 5908 5906 5904 5903 5900 5899 5897 5896 5894 5891 5889 5886 5883 5880 5877 5874 5870 5867 5864 5861 5858
5853 5857 5862 5870 5874 5877 5880 5883 5887 5889 5891 5893 5896 5898 5900 5901 5902 5903 5904 5904 5903 5903 5903 5902 5901 5899 5897 5895 5893 5892 5890 5888 5886 5884 5881 5879 5876 5872 5869 5865 5862 5859 5856 5854
5845 5850 5857 5862 5866 5870 5873 5877 5880 5883 5885 5887 5889 5891 5892 5894 5896 5896 5897 5897 5897 5896 5896 5896 5895 5893 5891 5891 5888 5886 5885 5883 5881 5879 5876 5873 5870 5867 5863 5859 5856 5854 5851 5848
5839 5844 5849 5854 5858 5862 5865 5869 5873 5875 5878 5880 5882 5883 5885 5886 5888 5890 5890 5890 5890 5890 5889 5889 5889 5887 5886 5885 5883 5881 5879 5877 5875 5873 5870 5867 5864 5861 5857 5854 5851 5848 5845 5842
5830 5835 5840 5845 5849 5853 5858 5861 5865 5868 5871 5872 5874 5876 5877 5879 5880 5881 5882 5883 5883 5883 5883 5882 5882 5881 5880 5878 5877 5875 5873 5871 5868 5866 5863 5861 5857 5855 5851 5847 5845 5841 5839 5836
5822 5827 5831 5836 5840 5846 5850 5853 5856 5859 5862 5864 5866 5867 5869 5871 5872 5873 5875 5876 5876 5876 5876 5875 5873 5873 5872 5871 5869 5867 5866 5863 5861 5858 5856 5853 5850 5848 5845 5842 5838 5836 5833 5830
5814 5819 5823 5828 5833 5837 5841 5844 5847 5850 5853 5856 5858 5860 5861 5863 5864 5865 5866 5867 5868 5868 5867 5867 5866 5865 5864 5863 5861 5859 5857 5855 5853 5850 5848 5845 5843 5840 5837 5834 5831 5828 5826 5823
5806 5810 5815 5820 5824 5828 5832 5835 5838 5841 5843 5847 5850 5852 5853 5854 5856 5857 5858 5858 5859 5859 5859 5858 5857 5856 5855 5854 5852 5850 5849 5847 5844 5842 5839 5837 5834 5832 5829 5827 5824 5821 5818 5815
5797 5801 5806 5810 5814 5818 5821 5824 5827 5830 5832 5837 5840 5842 5844 5845 5846 5848 5849 5849 5850 5850 5849 5849 5848 5847 5846 5845 5843 5841 5839 5837 5835 5833 5830 5828 5826 5823 5820 5818 5816 5813 5810 5807
5789 5792 5796 5800 5804 5807 5811 5815 5818 5822 5823 5826 5830 5833 5835 5836 5837 5838 5839 5840 5840 5840 5839 5839 5838 5838 5836 5835 5833 5832 5830 5828 5826 5824 5821 5819 5816 5814 5812 5809 5806 5804 5801 5799
5780 5783 5786 5791 5795 5799 5803 5807 5810 5813 5816 5818 5821 5823 5824 5826 5827 5828 5829 5830 5830 5830 5829 5829 5828 5827 5826 5825 5824 5822 5820 5818 5816 5814 5812 5809 5807 5805 5802 5799 5797 5794 5792 5789
5772 5775 5779 5783 5786 5789 5794 5798 5801 5804 5807 5810 5812 5813 5814 5816 5817 5818 5819 5819 5820 5819 5819 5818 5818 5817 5816 5815 5814 5812 5810 5808 5806 5804 5802 5800 5798 5795 5793 5790 5788 5785 5783 5780
5762 5766 5771 5774 5777 5781 5785 5789 5792 5795 5798 5800 5801 5802 5804 5805 5806 5807 5808 5809 5809 5809 5809 5808 5807 5807 5806 5805 5804 5802 5800 5798 5797 5795 5793 5791 5788 5786 5784 5781 5778 5776 5774 5771
5754 5758 5762 5766 5769 5773 5777 5780 5783 5786 5788 5790 5792 5793 5794 5794 5795 5797 5798 5798 5798 5799 5798 5798 5797 5797 5796 5794 5793 5792 5790 5788 5786 5785 5783 5781 5778 5776 5774 5771 5769 5766 5764 5761
5749 5752 5755 5758 5762 5765 5768 5771 5774 5776 5778 5779 5780 5782 5784 5784 5785 5786 5787 5788 5788 5788 5788 5788 5787 5787 5785 5784 5783 5781 5780 5778 5776 5774 5772 5770 5768 5766 5764 5762 5760 5757 5754 5752
5742 5745 5748 5751 5754 5757 5760 5762 5765 5767 5768 5770 5771 5773 5773 5774 5775 5776 5777 5778 5778 5778 5778 5778 5777 5776 5775 5774 5773 5771 5770 5768 5766 5764 5762 5760 5758 5756 5754 5752 5750 5748 5745 5743
5735 5738 5740 5743 5745 5748 5750 5753 5755 5757 5759 5760 5761 5763 5764 5765 5766 5766 5767 5768 5768 5768 5768 5768 5767 5766 5765 5764 5763 5761 5760 5758 5756 5754 5753 5751 5749 5747 5745 5743 5741 5738 5736 5734
5727 5730 5732 5735 5737 5739 5741 5743 5745 5747 5749 5750 5752 5753 5754 5755 5755 5756 5757 5758 5758 5758 5758 5758 5757 5757 5756 5754 5753 5752 5750 5748 5747 5745 5743 5741 5739 5737 5735 5733 5731 5729 5727 5724
5720 5722 5725 5727 5729 5731 5733 5735 5737 5738 5740 5741 5742 5743 5744 5745 5745 5746 5747 5748 5748 5748 5748 5748 5747 5747 5746 5745 5744 5742 5741 5739 5737 5735 5733 5731 5729 5728 5726 5724 5722 5720 5718 5716
5713 5716 5718 5720 5722 5724 5725 5727 5728 5729 5731 5732 5733 5734 5734 5735 5736 5736 5737 5738 5739 5739 5739 5739 5738 5737 5737 5736 5735 5733 5731 5730 5728 5726 5724 5722 5721 5719 5717 5715 5713 5711 5709 5707
5707 5709 5711 5712 5715 5716 5718 5719 5720 5721 5722 5724 5724 5725 5725 5726 5727 5728 5728 5729 5730 5730 5730 5729 5729 5728 5727 5727 5726 5724 5722 5721 5719 5717 5716 5714 5712 5710 5708 5706 5704 5702 5700 5698
5701 5702 5704 5706 5708 5709 5710 5712 5713 5713 5714 5715 5716 5716 5717 5718 5719 5719 5720 5721 5721 5721 5721 5720 5720 5719 5719 5718 5717 5715 5714 5712 5710 5709 5707 5705 5703 5702 5700 5698 5696 5694 5692 5690